Terminal Aerodrome Forecast
Issued by NWS

Home | Current Version | Previous Version | Text Only | Print | Product List | Glossary On
Versions: 1 2 3 4 5 6 7 8 9 10 11 12 13 14 15 16 17 18 19 20 21 22 23 24 25 26 27 28 29 30 31 32 33 34 35 36 37 38 39 40 41 42 43 44 45 46
000
FTUS45 KBOI 280520
TAFMYL
TAF
KMYL 280520Z 2806/2906 VRB06KT 5SM -SHRA BR BKN020
      TEMPO 2806/2810 OVC035
     FM281000 VRB06KT 1SM BR SCT002 BKN020
     FM281700 16012KT 5SM -SHRA BR SCT005 BKN015=

USA.gov is the U.S. government's official web portal to all federal, state and local government web resources and services.